Regional Weather Roundup
Issued by NWS

Home | Current Version | Previous Version | Graphics & Text | Print | Product List | Glossary On
Versions: 1 2 3 4 5 6 7 8 9 10 11 12 13 14 15 16 17 18 19 20 21 22 23 24 25 26 27 28 29 30 31 32 33 34 35 36 37 38 39 40 41 42 43 44 45 46 47 48 49 50
000
ASUS45 KPSR 240510
RWRAZ

ARIZONA REGIONAL HOURLY WEATHER ROUNDUP
NATIONAL WEATHER SERVICE PHOENIX AZ
1000 PM MST SUN NOV 23 2014

NOTE: FAIR INDICATES FEW OR NO CLOUDS BELOW 12,000 FEET WITH NO
SIGNIFICANT WEATHER AND/OR OBSTRUCTIONS TO VISIBILITY.

AZZ001>003-036-240600-
NORTHWEST ARIZONA

CITY           SKY/WX    TMP DP  RH WIND       PRES   REMARKS
BULLHEAD CITY  CLEAR     54   9  16 CALM      30.23S
KINGMAN        PTCLDY    36   7  29 E8        30.25R WCI  30
$$

AZZ004>008-015-016-018-240600-
NORTH CENTRAL ARIZONA

CITY           SKY/WX    TMP DP  RH WIND       PRES   REMARKS
GRAND CANYON   PTCLDY    14  -7  38 CALM      30.22S
PRESCOTT       CLEAR     33  -4  20 W6        30.23R WCI  28
FLAGSTAFF      PTCLDY    20  -8  28 S5        30.18F WCI  13
PAYSON         CLEAR     39  -8  13 N3        30.21R
$$

AZZ009>014-017-240600-
NORTHEAST ARIZONA

CITY           SKY/WX    TMP DP  RH WIND       PRES   REMARKS
WINSLOW        CLEAR     28  -6  22 S3        30.20R
SAINT JOHNS    CLEAR     28  -2  27 SE5       30.16R WCI  23
SHOW LOW       CLEAR     23  -4  30 N6        30.19R WCI  16
$$

AZZ023-240600-
GREATER PHOENIX AREA

CITY           SKY/WX    TMP DP  RH WIND       PRES   REMARKS
PHOENIX        CLEAR     57  13  17 SE3       30.09S
BUCKEYE          N/A     50   5  16 E5        30.12R
LUKE AFB       CLEAR     50  12  21 N9        30.11R HAZE
DEER VALLEY    CLEAR     51   1  13 N6        30.10S
SCOTTSDALE     CLEAR     53   4  13 SW3       30.11S
MESA-GATEWAY   CLEAR     52   9  17 SE7       30.12S
$$

AZZ027-028-240600-
SOUTHWEST MARICOPA COUNTY AND PINAL COUNTY

CITY           SKY/WX    TMP DP  RH WIND       PRES   REMARKS
CASA GRANDE    CLEAR     48   5  17 CALM      30.12S
$$

AZZ503-504-507>509-240600-
SOUTHEAST ARIZONA

CITY           SKY/WX    TMP DP  RH WIND       PRES   REMARKS
TUCSON         CLEAR     52  22  30 CALM      30.15R
DAVIS-MONTHAN  CLEAR     46  23  40 S5        30.13R
NOGALES        CLEAR     44  21  40 N8        30.13R
SIERRA VISTA   CLEAR     45  12  26 W5        30.16R
DOUGLAS        CLEAR     38  15  39 N9        30.14R WCI  31
SAFFORD        CLEAR     43  -3  14 N7        30.13R
$$

AZZ020-021-025-026-031-240600-
SOUTHWEST ARIZONA

CITY           SKY/WX    TMP DP  RH WIND       PRES   REMARKS
YUMA           PTCLDY    60   9  13 NW9       30.13R
$$

CAZ031-033-041-043-047-048-061-240600-
SOUTHERN CALIFORNIA

CITY           SKY/WX    TMP DP  RH WIND       PRES   REMARKS
DOWNTOWN L.A.  PTCLDY    63  17  17 CALM      30.13R
L.A. AIRPORT   PTCLDY    66  11  11 SE7       30.13R
SAN DIEGO      MOCLDY    64  52  64 NE5       30.14R
BURBANK        PTCLDY    63  12  13 W6        30.14S
ONTARIO        MOCLDY    58  19  22 E3        30.15R
RIVERSIDE      MOCLDY    59  13  16 E5        30.17R
PALM SPRINGS   PTCLDY    59  13  16 NW6       30.19S
EL CENTRO NAS  PTCLDY    52  21  29 W7        30.16R
IMPERIAL       PTCLDY    57  26  30 NW7       30.15R
BLYTHE         CLEAR     60   4  10 NW9       30.18R
NEEDLES        CLEAR     54   5  14 N9        30.21R
$$

NVZ020-UTZ003-240600-
SOUTHERN NEVADA-UTAH

CITY           SKY/WX    TMP DP  RH WIND       PRES   REMARKS
LAS VEGAS      PTCLDY    51   8  17 S9        30.20F
SALT LAKE CITY MOCLDY    36  24  62 SE5       30.23S WCI  32
$$

NMZ009-TXZ055-240600-
NEW MEXICO-WEST TEXAS

CITY           SKY/WX    TMP DP  RH WIND       PRES   REMARKS
ALBUQUERQUE    CLEAR     37  10  32 N12       30.06R WCI  29
EL PASO        PTCLDY    51  -1  11 NW17G25   30.03R
$$


........................KEY........................
SKY/WX - SKY CONDITION/WEATHER
TMP    - TEMPERATURE IN FAHRENHEIT
DP     - DEW POINT IN FAHRENHEIT
RH     - RELATIVE HUMIDITY IN PERCENT
WIND   - DIRECTION AND SPEED IN MILES PER HOUR (MPH)
VRB    - VARIABLE WIND DIRECTION
PRES   - MEAN SEA LEVEL PRESSURE IN INCHES OF MERCURY
         F - FALLING PRESSURE   R - RISING PRESSURE
         S - STEADY PRESSURE
VSB    - VISIBILITY IN MILES
HX     - HEAT INDEX IN FAHRENHEIT
WCI    - WIND CHILL INDEX IN FAHRENHEIT
TC     - TEMPERATURE IN CELSIUS WHICH IS ALSO KNOWN AS
         TEMPERATURE IN CENTIGRADE
AFB    - AIR FORCE BASE
         LUKE AFB IS LUKE AIR FORCE BASE
         DAVIS-MONTHAN IS DAVIS-MONTHAN AIR FORCE BASE
NAS    - NAVAL AIR STATION
         EL CENTRO NAS IS EL CENTRO NAVAL AIR STATION
N/A    - NOT AVAILABLE



USA.gov is the U.S. government's official web portal to all federal, state and local government web resources and services.